Date,TemperatureHighF,TemperatureAvgF,TemperatureLowF,DewpointHighF,DewpointAvgF,DewpointLowF,HumidityHigh,HumidityAvg,HumidityLow,PressureMaxIn,PressureMinIn,WindSpeedMaxMPH,WindSpeedAvgMPH,GustSpeedMaxMPH,PrecipitationSumIn
2013-1-1,37.1,33.8,24.5,30.0,24.8,12.0,82,70,59,30.04,29.88,4,1,6,0.05
2013-1-2,32.9,24.9,19.8,17.0,13.4,10.0,69,62,49,30.23,30.02,3,0,8,0.00
2013-1-3,33.1,25.7,20.4,18.0,15.2,14.0,77,65,49,30.24,30.11,2,0,5,0.00
2013-1-4,36.8,31.0,25.4,22.0,20.3,18.0,74,65,55,30.14,30.00,5,1,8,0.00
2013-1-5,43.7,33.1,28.3,24.0,20.5,17.0,71,61,43,30.32,30.06,3,0,7,0.00
2013-1-6,47.5,36.4,29.2,32.0,26.8,22.0,94,70,46,30.24,30.00,3,0,5,0.00
2013-1-7,46.4,36.5,29.6,29.0,25.0,20.0,79,64,42,30.42,30.09,3,0,5,0.00
2013-1-8,48.8,35.9,27.1,32.0,27.1,23.0,84,71,50,30.45,30.37,2,0,5,0.00
2013-1-9,45.9,39.0,31.9,37.0,32.1,27.0,85,76,70,30.41,30.17,2,0,6,0.00
2013-1-10,49.5,40.0,34.9,32.0,25.5,23.0,73,57,37,30.57,30.28,6,1,7,0.00
2013-1-11,44.6,39.7,33.5,43.0,32.2,22.0,96,76,53,30.56,30.11,2,0,5,0.46
2013-1-12,46.9,43.3,39.7,45.0,42.4,39.0,97,96,93,30.19,30.10,2,0,2,0.00
2013-1-13,48.0,44.5,42.1,48.0,43.8,41.0,98,97,97,30.17,30.03,4,0,4,0.05
2013-1-14,53.8,47.8,36.9,53.0,42.7,28.0,98,84,52,30.30,29.93,3,0,4,0.10
2013-1-15,36.9,35.1,32.4,35.0,29.5,27.0,93,80,69,30.36,30.23,2,0,3,0.11
2013-1-16,33.7,31.8,30.9,33.0,30.6,29.0,97,95,91,30.23,29.84,2,0,4,0.44
2013-1-17,41.8,36.4,33.1,33.0,28.8,24.0,94,75,60,30.12,29.94,4,1,5,0.14
2013-1-18,33.1,27.1,22.4,25.0,12.8,5.0,76,56,36,30.51,30.02,3,0,8,0.00
2013-1-19,48.7,36.0,23.4,28.0,22.3,11.0,76,59,43,30.44,29.96,9,1,9,0.00
2013-1-20,53.2,40.1,26.8,30.0,22.4,11.0,74,52,26,30.06,29.73,6,2,11,0.00
2013-1-21,29.8,25.5,18.8,16.0,11.0,9.0,71,55,43,30.12,29.88,2,0,6,0.00
2013-1-22,23.2,16.7,10.0,9.0,-0.8,-7.0,59,47,32,30.26,29.88,8,2,11,0.00
2013-1-23,19.8,11.6,7.1,0.0,-3.1,-8.0,69,52,37,30.30,30.21,6,1,6,0.00
2013-1-24,24.3,14.4,7.0,3.0,-0.6,-3.0,76,54,30,30.48,30.18,7,1,8,0.00
2013-1-25,21.5,14.4,7.7,13.0,3.3,-5.0,90,63,44,30.49,30.13,2,0,5,0.00
2013-1-26,27.7,17.6,9.7,11.0,7.7,5.0,89,67,44,30.44,30.11,5,1,6,0.00
2013-1-27,35.5,22.9,13.8,14.0,9.8,6.0,73,59,38,30.59,30.44,3,1,5,0.00
2013-1-28,32.0,28.3,22.2,31.0,23.2,11.0,96,82,57,30.54,30.06,1,0,6,0.00
2013-1-29,53.2,41.6,31.9,44.0,38.9,31.0,97,91,70,30.18,30.06,1,0,4,0.03
2013-1-30,64.5,51.4,41.0,59.0,49.8,40.0,98,94,79,30.09,29.37,3,0,11,0.09
2013-1-31,59.2,41.6,25.8,58.0,29.7,10.0,97,65,39,29.81,29.06,13,3,15,1.39
2013-2-1,31.2,24.9,19.7,18.0,10.9,5.0,83,57,34,30.28,29.82,5,2,10,0.00
2013-2-2,29.8,21.1,14.4,19.0,8.6,5.0,89,60,37,30.35,30.09,4,1,8,0.00
2013-2-3,31.6,23.6,20.4,21.0,18.3,16.0,92,80,63,30.09,29.83,3,0,3,0.01
2013-2-4,29.2,23.3,18.5,19.0,11.0,8.0,81,60,44,30.03,29.86,7,1,9,0.00
2013-2-5,29.2,26.7,23.3,26.0,23.3,16.0,93,87,73,30.01,29.94,1,0,3,0.00
2013-2-6,37.3,29.9,24.4,26.0,21.4,10.0,95,72,51,30.39,29.96,5,1,8,0.01
2013-2-7,32.6,26.2,19.3,21.0,12.4,7.0,70,57,43,30.54,30.35,2,0,5,0.00
2013-2-8,32.5,30.7,27.2,31.0,27.6,22.0,94,88,71,30.35,29.69,6,1,12,0.00
2013-2-9,34.3,26.0,16.0,27.0,16.1,6.0,95,68,41,30.38,29.79,8,1,21,0.00
2013-2-10,40.0,24.0,11.5,20.0,11.8,6.0,80,62,32,30.52,30.36,2,0,4,0.18
2013-2-11,42.9,35.6,26.8,42.0,33.4,20.0,97,92,74,30.37,29.70,3,0,6,0.28
2013-2-12,42.8,37.0,28.9,36.0,25.8,22.0,97,65,51,30.00,29.77,7,2,9,0.00
2013-2-13,43.9,33.5,25.8,30.0,24.4,21.0,94,71,48,29.99,29.71,1,0,4,0.00
2013-2-14,46.9,35.9,28.1,33.0,27.7,24.0,96,75,43,30.03,29.74,2,0,3,0.08
2013-2-15,56.0,41.0,29.9,34.0,29.7,26.0,93,67,39,30.04,29.94,3,0,7,0.00
2013-2-16,39.3,33.1,27.6,32.0,24.9,13.0,95,73,53,29.99,29.77,3,0,8,0.03
2013-2-17,30.6,24.4,15.5,12.0,5.9,0.0,56,46,35,30.04,29.71,8,2,12,0.00
2013-2-18,34.2,23.1,13.6,11.0,5.6,0.0,60,48,34,30.30,30.04,7,2,10,0.00
2013-2-19,45.1,34.4,23.3,41.0,26.7,11.0,96,75,51,30.23,29.72,6,1,10,0.36
2013-2-20,33.5,27.3,21.9,24.0,13.6,8.0,71,57,46,30.03,29.77,7,2,10,0.00
2013-2-21,34.8,25.9,20.9,16.0,12.1,9.0,68,57,44,30.31,30.02,7,2,11,0.00
2013-2-22,36.5,28.7,20.8,30.0,20.4,13.0,87,72,56,30.44,30.30,2,0,7,0.00
2013-2-23,41.3,36.9,33.5,41.0,35.8,30.0,97,95,87,30.30,29.83,4,0,6,0.40
2013-2-24,44.8,35.9,29.4,39.0,30.0,20.0,97,80,60,30.01,29.78,6,1,8,0.00
2013-2-25,43.8,34.5,27.5,28.0,24.9,20.0,83,69,53,30.26,30.02,3,0,6,0.00
2013-2-26,44.7,36.3,30.0,33.0,29.2,25.0,94,76,60,30.30,29.86,5,0,9,0.14
2013-2-27,47.0,40.3,34.4,45.0,37.7,33.0,96,90,77,29.89,29.53,9,2,13,0.68
2013-2-28,48.0,40.1,32.9,36.0,31.9,26.0,88,74,53,29.65,29.57,3,1,5,0.00
2013-3-1,45.0,36.4,31.1,30.0,27.5,24.0,89,71,51,29.80,29.63,4,1,7,0.00
2013-3-2,37.9,32.4,27.5,24.0,22.4,20.0,78,67,55,29.81,29.73,4,1,6,0.00
2013-3-3,37.4,30.0,25.9,20.0,18.0,15.0,71,61,47,29.80,29.70,4,1,11,0.00
2013-3-4,41.0,31.5,24.4,21.0,18.0,14.0,71,58,43,29.95,29.80,6,2,10,0.00
2013-3-5,49.3,36.3,27.6,27.0,22.8,19.0,76,60,38,30.05,29.95,3,0,6,0.00
2013-3-6,39.6,36.9,33.7,34.0,30.0,26.0,88,76,64,29.98,29.84,8,2,18,0.01
2013-3-7,40.5,35.0,31.2,33.0,28.0,24.0,93,77,65,30.11,29.94,4,1,14,0.05
2013-3-8,39.5,33.0,28.3,34.0,29.2,26.0,94,86,69,30.22,30.03,3,0,6,0.32
2013-3-9,59.9,41.9,29.1,26.0,19.8,10.0,74,46,16,30.33,30.20,3,1,7,0.06
2013-3-10,53.7,39.4,31.1,36.0,31.6,18.0,96,76,43,30.39,30.30,3,0,5,0.00
2013-3-11,57.5,44.2,32.9,46.0,39.4,31.0,95,84,53,30.34,30.10,2,0,4,0.00
2013-3-12,55.5,50.2,40.6,55.0,48.1,36.0,97,92,80,30.10,29.68,3,0,7,0.85
2013-3-13,50.6,40.7,33.6,36.0,29.1,22.0,92,66,36,29.91,29.82,4,1,7,0.00
2013-3-14,40.8,32.6,27.7,22.0,12.8,7.0,62,45,28,30.00,29.88,7,2,10,0.00
2013-3-15,46.0,36.1,25.1,30.0,19.2,10.0,63,51,42,30.02,29.75,4,1,9,0.00
2013-3-16,40.6,33.0,30.1,30.0,25.6,20.0,92,75,54,29.94,29.79,1,0,3,0.03
2013-3-17,36.4,30.8,25.4,29.0,19.5,15.0,90,65,45,30.32,29.94,4,0,6,0.01
2013-3-18,34.6,29.0,23.9,30.0,19.1,8.0,95,68,48,30.42,30.02,4,0,6,0.08
2013-3-19,46.7,36.9,31.5,37.0,30.6,16.0,96,80,44,30.01,29.72,5,1,9,0.88
2013-3-20,45.0,35.9,28.0,21.0,17.9,15.0,65,49,32,29.92,29.80,6,1,9,0.00
2013-3-21,39.1,31.9,26.3,27.0,17.1,11.0,89,56,35,29.86,29.66,5,1,6,0.00
2013-3-22,40.4,31.6,24.6,21.0,16.8,11.0,71,55,40,29.91,29.77,8,2,10,0.00
2013-3-23,46.4,36.4,29.2,23.0,19.0,17.0,67,51,35,29.96,29.85,7,2,10,0.00
2013-3-24,46.3,37.0,27.6,24.0,19.4,16.0,64,50,36,29.98,29.72,4,0,7,0.00
2013-3-25,36.7,34.7,32.1,33.0,28.9,24.0,94,80,61,29.72,29.50,5,0,9,0.19
2013-3-26,49.0,39.9,31.8,32.0,29.0,25.0,94,68,41,29.89,29.63,3,0,7,0.01
2013-3-27,51.3,40.1,31.4,30.0,26.3,22.0,76,60,32,30.01,29.89,7,1,10,0.00
2013-3-28,49.4,40.4,31.8,30.0,28.0,26.0,82,63,45,30.13,29.99,4,1,6,0.00
2013-3-29,55.1,43.1,34.5,29.0,27.1,26.0,74,55,34,30.17,30.08,7,1,8,0.00
2013-3-30,58.8,45.8,34.9,31.0,24.6,17.0,74,47,24,30.20,30.09,4,0,6,0.00
2013-3-31,58.2,45.5,35.4,42.0,32.8,21.0,96,65,35,30.14,29.71,2,0,5,0.23
2013-4-1,62.9,46.3,33.3,46.0,36.1,12.0,97,71,38,29.93,29.65,6,1,11,0.00
2013-4-2,43.2,35.1,28.1,17.0,12.8,10.0,54,41,28,30.11,29.93,6,1,10,0.00
2013-4-3,45.5,34.9,26.5,17.0,12.0,9.0,55,40,28,30.32,30.11,5,1,9,0.00
2013-4-4,54.7,39.2,25.4,23.0,17.4,11.0,63,43,26,30.42,30.11,4,1,6,0.00
2013-4-5,64.8,47.2,37.1,30.0,23.8,18.0,74,44,20,30.10,29.74,4,1,8,0.00
2013-4-6,54.0,41.9,30.6,25.0,15.6,10.0,64,37,18,30.32,30.02,4,1,6,0.00
2013-4-7,64.4,48.4,33.9,42.0,32.5,25.0,78,58,28,30.32,30.00,4,1,12,0.00
2013-4-8,78.5,60.3,47.5,46.0,42.5,38.0,81,56,24,30.08,29.98,3,0,8,0.00
2013-4-9,83.7,68.5,55.3,51.0,44.7,35.0,78,47,19,29.98,29.90,5,1,10,0.00
2013-4-10,84.7,65.9,54.8,55.0,50.4,44.0,95,60,34,29.94,29.80,2,0,5,0.38
2013-4-11,59.0,54.2,45.3,58.0,50.2,40.0,97,87,67,30.02,29.77,4,0,7,0.01
2013-4-12,46.3,41.7,39.8,41.0,39.7,39.0,97,92,75,29.99,29.72,6,1,10,0.80
2013-4-13,58.2,47.2,36.1,43.0,36.3,33.0,98,70,41,29.99,29.76,3,1,6,0.01
2013-4-14,59.4,50.4,42.5,37.0,31.4,27.0,72,50,32,30.22,29.98,5,1,9,0.00
2013-4-15,60.6,49.2,40.1,41.0,32.3,26.0,83,54,37,30.38,30.22,2,0,5,0.00
2013-4-16,71.8,57.1,44.1,54.0,48.0,40.0,92,73,51,30.37,30.12,4,1,7,0.00
2013-4-17,73.1,60.5,50.3,56.0,41.5,30.0,93,55,21,30.29,30.12,3,0,4,0.00
2013-4-18,58.1,51.3,46.0,52.0,44.1,37.0,96,77,62,30.34,30.10,1,0,4,0.00
2013-4-19,77.6,64.9,53.7,64.0,59.4,53.0,97,83,58,30.09,29.64,4,1,10,0.30
2013-4-20,58.2,50.2,43.2,54.0,35.2,25.0,94,60,34,30.30,29.70,4,2,9,0.13
2013-4-21,56.1,42.9,30.6,27.0,22.6,19.0,67,46,26,30.63,30.31,3,0,6,0.00
2013-4-22,56.4,45.4,35.5,37.0,31.2,25.0,77,59,41,30.66,30.49,5,1,8,0.00
2013-4-23,47.9,42.8,37.4,41.0,35.6,30.0,86,76,65,30.48,30.14,3,0,5,0.00
2013-4-24,75.2,55.9,38.8,52.0,44.7,36.0,90,69,42,30.14,29.82,4,1,7,0.00
2013-4-25,66.0,54.4,42.5,52.0,30.6,23.0,82,43,20,30.28,29.87,6,1,9,0.00
2013-4-26,66.8,54.6,45.6,35.0,28.5,23.0,54,39,20,30.41,30.27,4,0,5,0.00
2013-4-27,71.8,55.9,41.7,33.0,29.5,27.0,61,39,20,30.44,30.28,3,0,5,0.00
2013-4-28,72.9,57.6,43.0,42.0,34.9,26.0,71,45,28,30.32,30.19,6,0,7,0.00
2013-4-29,53.9,51.1,48.9,50.0,47.6,39.0,96,88,58,30.24,30.18,1,0,2,0.18
2013-4-30,67.9,54.4,45.5,49.0,41.2,28.0,96,66,28,30.34,30.21,2,0,5,0.00
2013-5-1,70.0,54.5,42.7,44.0,35.0,27.0,84,51,24,30.49,30.34,3,0,7,0.00
2013-5-2,75.5,58.1,43.7,45.0,41.4,39.0,90,58,29,30.48,30.34,4,0,4,0.00
2013-5-3,68.2,55.0,44.0,44.0,39.3,34.0,89,58,37,30.45,30.36,5,0,7,0.00
2013-5-4,71.6,54.0,42.6,45.0,41.2,39.0,94,66,34,30.38,30.24,2,0,6,0.00
2013-5-5,63.9,50.1,40.1,43.0,40.1,37.0,92,71,44,30.30,30.23,3,0,5,0.00
2013-5-6,70.2,54.1,43.0,53.0,46.4,41.0,93,77,54,30.27,30.17,2,0,4,0.00
2013-5-7,73.7,59.4,47.9,58.0,52.2,45.0,94,78,58,30.18,30.09,2,0,5,0.00
2013-5-8,66.5,59.1,53.4,62.0,57.3,51.0,97,93,82,30.10,29.96,3,0,5,1.61
2013-5-9,69.4,58.7,52.3,59.0,54.5,51.0,98,87,64,30.00,29.91,2,0,3,0.46
2013-5-10,80.7,67.0,54.4,60.0,55.8,52.0,97,71,39,30.01,29.90,1,0,5,0.00
2013-5-11,72.0,62.9,58.9,66.0,61.2,57.0,98,94,79,29.91,29.71,2,0,6,0.81
2013-5-12,66.2,57.8,46.8,58.0,42.3,27.0,96,61,28,29.95,29.68,4,1,9,0.00
2013-5-13,55.9,47.3,40.3,32.0,29.6,26.0,71,52,35,30.12,29.95,4,0,6,0.00
2013-5-14,62.9,49.2,37.1,32.0,28.7,22.0,77,49,23,30.15,30.04,3,0,4,0.00
2013-5-15,74.9,59.2,46.5,57.0,44.7,28.0,77,60,46,30.08,29.70,2,0,8,0.00
2013-5-16,81.5,68.3,58.2,60.0,54.2,41.0,86,63,36,29.84,29.72,2,0,4,0.00
2013-5-17,73.7,63.3,54.6,44.0,41.2,38.0,60,45,31,30.20,29.85,2,0,3,0.00
2013-5-18,63.1,57.8,54.6,55.0,49.0,41.0,88,73,53,30.31,30.20,0,0,2,0.00
2013-5-19,56.6,55.3,53.5,56.0,54.5,52.0,98,96,88,30.31,30.18,2,0,4,0.75
2013-5-20,79.3,65.9,55.7,68.0,61.8,55.0,98,88,63,30.19,29.98,2,0,4,0.01
2013-5-21,87.7,73.5,64.2,71.0,66.6,63.0,97,81,57,29.98,29.86,2,0,5,0.00
2013-5-22,83.3,71.3,62.1,73.0,66.8,60.0,96,86,68,29.93,29.83,1,0,4,0.00
2013-5-23,78.5,70.4,66.6,72.0,67.4,65.0,95,90,70,29.89,29.75,2,0,8,0.22
2013-5-24,66.6,53.2,42.6,65.0,51.3,41.0,97,93,86,29.98,29.70,2,0,3,0.37
2013-5-25,55.8,48.1,41.7,45.0,40.5,35.0,96,77,54,30.03,29.92,5,1,6,0.13
2013-5-26,68.9,55.0,44.2,42.0,37.3,32.0,79,54,32,30.22,30.00,3,0,6,0.00
2013-5-27,75.7,60.2,46.3,44.0,38.0,33.0,66,46,27,30.27,30.15,2,0,4,0.00
2013-5-28,62.2,56.8,53.8,56.0,49.7,42.0,97,78,55,30.23,30.15,3,0,3,0.34
2013-5-29,86.4,75.5,58.6,71.0,64.8,58.0,98,72,50,30.12,30.02,2,0,5,0.01
2013-5-30,93.4,79.7,69.7,68.0,64.8,62.0,87,63,37,30.14,30.07,2,0,4,0.00
2013-5-31,94.1,80.3,69.1,70.0,64.3,59.0,87,61,32,30.13,30.00,3,0,5,0.00
2013-6-1,91.9,79.7,69.6,70.0,66.0,62.0,87,65,42,30.03,29.90,3,0,5,0.00
2013-6-2,86.9,77.9,69.3,70.0,67.4,65.0,89,71,50,29.92,29.79,2,0,7,0.00
2013-6-3,78.7,70.9,64.4,70.0,65.6,54.0,97,84,64,29.88,29.80,2,0,7,0.16
2013-6-4,76.6,63.3,53.3,53.0,46.1,43.0,75,55,34,30.12,29.89,1,0,4,0.00
2013-6-5,74.2,62.1,52.0,53.0,44.9,38.0,87,55,34,30.22,30.11,3,0,5,0.00
2013-6-6,69.8,61.4,55.7,59.0,56.6,52.0,96,85,56,30.15,30.00,1,0,5,0.23
2013-6-7,61.6,59.6,58.4,61.0,58.9,58.0,98,98,96,30.00,29.61,3,0,9,4.33
2013-6-8,74.3,65.0,55.3,65.0,60.8,55.0,98,87,69,30.06,29.59,2,0,6,0.04
2013-6-9,81.5,69.7,58.0,61.0,58.6,56.0,95,70,46,30.18,30.07,1,0,3,0.00
2013-6-10,68.4,64.9,62.2,65.0,62.6,58.0,98,92,71,30.16,29.81,2,0,5,1.82
2013-6-11,77.4,71.0,65.6,68.0,65.3,60.0,98,83,67,29.81,29.64,3,0,7,0.05
2013-6-12,81.2,69.0,62.1,61.0,57.3,53.0,86,68,43,29.86,29.73,1,0,3,0.00
2013-6-13,64.9,61.2,55.3,61.0,57.8,52.0,96,89,67,29.85,29.45,4,0,9,0.92
2013-6-14,74.4,58.6,51.4,62.0,54.7,50.0,97,88,61,29.91,29.54,4,0,7,0.46
2013-6-15,79.8,67.0,55.9,61.0,56.3,53.0,96,71,42,30.03,29.91,2,0,4,0.00
2013-6-16,81.9,70.0,60.7,64.0,58.1,51.0,90,67,45,30.00,29.80,3,0,11,0.00
2013-6-17,85.7,72.5,64.2,68.0,64.4,61.0,95,77,52,29.93,29.85,2,0,4,0.00
2013-6-18,80.8,69.1,61.7,70.0,64.6,61.0,97,86,65,29.91,29.81,0,0,4,0.16
2013-6-19,76.7,65.2,56.1,60.0,53.6,48.0,97,70,38,30.17,29.88,2,0,6,0.00
2013-6-20,81.7,68.4,57.2,61.0,55.1,51.0,87,64,40,30.28,30.18,2,0,3,0.00
2013-6-21,83.8,70.0,59.2,60.0,54.1,50.0,77,58,39,30.31,30.24,2,0,4,0.00
2013-6-22,85.0,71.3,58.8,66.0,59.1,51.0,81,66,49,30.27,30.13,1,0,4,0.00
2013-6-23,89.1,74.6,64.5,71.0,66.3,61.0,94,77,52,30.20,30.06,3,0,6,0.00
2013-6-24,92.5,76.9,70.1,73.0,68.3,61.0,97,77,45,30.08,29.96,2,0,5,0.00
2013-6-25,89.7,75.7,66.9,74.0,68.3,64.0,95,79,48,30.00,29.82,3,0,6,0.36
2013-6-26,85.8,76.0,68.8,71.0,67.8,64.0,89,76,57,29.86,29.79,1,0,3,0.00
2013-6-27,86.9,76.4,69.1,74.0,70.4,68.0,97,83,62,29.83,29.55,2,0,5,1.34
2013-6-28,86.2,74.9,69.8,71.0,69.0,65.0,98,83,56,29.57,29.48,3,0,6,0.00
2013-6-29,85.7,74.7,65.9,69.0,65.9,63.0,96,76,52,29.70,29.49,2,0,4,0.00
2013-6-30,81.3,74.4,70.6,76.0,71.8,69.0,97,91,80,29.91,29.71,0,0,3,0.19
2013-7-1,75.2,72.7,70.5,74.0,71.7,69.0,98,97,95,30.05,29.89,2,0,7,1.23
2013-7-2,83.2,74.8,71.4,76.0,72.4,70.0,98,92,75,30.19,30.04,1,0,4,0.00
2013-7-3,84.5,75.4,69.5,76.0,72.4,69.0,97,90,70,30.26,30.18,1,0,4,0.03
2013-7-4,87.6,79.0,73.2,76.0,73.1,71.0,98,83,62,30.26,30.16,3,0,4,0.00
2013-7-5,90.7,80.2,72.1,75.0,72.2,69.0,97,78,56,30.22,30.10,3,0,5,0.00
2013-7-6,92.6,81.3,74.0,75.0,72.8,71.0,93,76,54,30.15,30.03,2,0,4,0.00
2013-7-7,92.5,81.9,73.6,77.0,72.7,68.0,90,74,55,30.07,29.94,2,0,5,0.00
2013-7-8,88.4,80.2,70.2,72.0,69.2,65.0,91,70,54,30.06,29.98,2,0,5,0.00
2013-7-9,87.8,76.1,68.6,74.0,69.4,66.0,95,81,57,30.08,30.00,2,0,3,0.14
2013-7-10,86.5,77.3,70.9,76.0,72.2,70.0,97,85,66,30.02,29.82,3,0,7,0.00
2013-7-11,83.4,76.5,71.1,74.0,70.3,63.0,91,81,63,29.93,29.81,1,0,3,0.00
2013-7-12,75.0,65.7,66.7,69.0,54.6,-99.9,97,79,74,30.09,29.92,3,-67,9,0.50
2013-7-13,79.8,58.8,66.6,76.0,39.1,-99.9,99,78,86,30.29,30.09,5,-189,6,0.25
2013-7-14,89.7,79.1,72.6,76.0,73.2,70.0,99,83,59,30.35,30.25,1,0,4,0.01
2013-7-15,94.4,81.3,71.7,78.0,73.4,70.0,95,78,54,30.26,30.14,0,0,1,0.00
2013-7-16,92.6,81.4,72.8,72.0,69.7,66.0,84,69,46,30.21,30.14,1,0,3,0.00
2013-7-17,94.6,83.0,75.2,74.0,70.8,68.0,82,68,47,30.20,30.06,0,0,2,0.00
2013-7-18,97.1,84.8,75.5,77.0,73.4,70.0,86,70,45,30.08,29.97,0,0,3,0.00
2013-7-19,95.1,85.4,78.0,80.0,76.1,73.0,90,75,51,29.98,29.80,2,0,6,0.00
2013-7-20,90.8,79.4,72.6,76.0,72.0,69.0,95,79,57,29.84,29.74,4,0,6,0.09
2013-7-21,86.6,77.1,71.5,71.0,68.1,63.0,96,75,51,29.96,29.83,2,0,3,0.00
2013-7-22,84.1,75.3,71.4,75.0,70.9,66.0,97,86,67,29.95,29.80,0,0,3,0.17
2013-7-23,85.9,75.0,69.9,75.0,72.3,69.0,98,92,69,29.79,29.58,1,0,4,0.69
2013-7-24,79.8,72.6,63.4,70.0,65.3,54.0,94,79,62,29.93,29.62,0,0,2,0.00
2013-7-25,65.3,62.6,59.5,60.0,55.1,50.0,87,76,68,30.05,29.93,2,0,5,0.00
2013-7-26,82.1,70.1,62.4,65.0,60.4,57.0,88,73,48,30.06,30.01,1,0,4,0.00
2013-7-27,85.1,72.1,64.3,68.0,63.8,60.0,95,77,48,30.06,29.95,2,0,4,0.00
2013-7-28,80.5,70.5,66.1,72.0,67.2,63.0,98,89,75,29.99,29.90,1,0,2,1.39
2013-7-29,83.3,71.4,64.9,70.0,64.0,57.0,98,80,44,30.12,29.96,1,0,2,0.02
2013-7-30,81.0,69.6,60.3,61.0,58.2,55.0,84,68,47,30.18,30.11,1,0,4,0.00
2013-7-31,81.9,70.8,61.3,64.0,59.8,56.0,84,69,48,30.17,30.05,1,0,2,0.00
2013-8-1,69.0,67.3,64.6,68.0,65.2,63.0,98,93,83,30.05,29.84,0,0,2,1.06
2013-8-2,82.9,71.4,62.2,69.0,64.5,61.0,99,81,52,29.93,29.80,2,0,4,0.00
2013-8-3,77.4,68.5,65.2,68.0,63.6,58.0,94,84,69,29.93,29.86,3,0,5,0.01
2013-8-4,80.7,69.4,61.4,65.0,59.0,52.0,94,71,46,29.99,29.87,3,0,5,0.00
2013-8-5,79.0,66.2,57.5,55.0,52.1,46.0,80,62,40,30.08,29.98,1,0,6,0.00
2013-8-6,82.0,69.0,60.1,63.0,57.1,52.0,86,67,43,30.13,30.04,2,0,5,0.00
2013-8-7,77.3,69.5,63.8,67.0,65.2,62.0,94,86,71,30.14,30.07,2,0,4,0.00
2013-8-8,81.1,72.1,67.9,77.0,70.7,67.0,98,95,79,30.07,29.99,1,0,5,1.31
2013-8-9,81.7,74.6,70.6,76.0,72.9,70.0,99,94,79,30.02,29.82,3,0,6,0.07
2013-8-10,83.1,73.2,66.4,72.0,67.1,61.0,98,82,57,30.06,29.88,2,0,3,0.00
2013-8-11,82.7,70.2,59.8,65.0,59.8,54.0,87,71,48,30.14,30.03,1,0,2,0.00
2013-8-12,83.0,71.3,66.6,69.0,65.9,61.0,97,84,54,30.05,29.94,0,0,1,0.43
2013-8-13,78.0,70.7,66.2,70.0,68.2,64.0,98,92,76,29.94,29.71,3,0,3,1.24
2013-8-14,74.6,63.9,55.5,64.0,54.9,51.0,92,73,52,30.07,29.77,1,0,4,0.00
2013-8-15,79.2,63.8,53.7,56.0,51.9,48.0,88,67,40,30.16,30.07,2,0,3,0.00
2013-8-16,80.8,67.3,57.5,59.0,54.7,51.0,89,66,40,30.22,30.14,1,0,3,0.00
2013-8-17,82.8,68.7,60.7,61.0,57.0,54.0,85,68,43,30.29,30.22,2,0,5,0.00
2013-8-18,73.6,67.5,63.7,64.0,59.5,56.0,87,76,54,30.27,30.15,2,0,3,0.00
2013-8-19,73.9,67.7,61.8,65.0,62.6,59.0,96,84,63,30.15,30.06,0,0,2,0.00
2013-8-20,87.6,73.7,64.1,69.0,65.3,63.0,96,77,46,30.15,30.06,2,0,2,0.00
2013-8-21,88.7,75.6,66.4,67.0,63.6,60.0,88,68,41,30.19,30.07,1,0,3,0.00
2013-8-22,76.8,71.5,68.3,74.0,69.6,66.0,98,94,75,30.08,29.89,0,0,7,1.04
2013-8-23,77.9,70.0,64.7,70.0,63.5,56.0,98,81,53,30.10,29.89,0,0,2,0.00
2013-8-24,80.3,67.2,58.7,58.0,54.3,50.0,85,65,36,30.36,30.11,2,0,5,0.00
2013-8-25,82.9,68.8,59.2,60.0,56.6,54.0,90,67,40,30.41,30.25,2,0,3,0.00
2013-8-26,80.3,70.5,62.8,68.0,61.7,55.0,89,74,60,30.25,29.93,2,0,5,0.01
2013-8-27,87.9,74.9,67.4,71.0,68.2,66.0,97,81,53,29.93,29.84,1,0,5,0.06
2013-8-28,78.8,72.6,69.3,72.0,69.9,67.0,97,91,78,29.90,29.85,0,0,1,0.02
2013-8-29,79.2,70.9,66.9,70.0,68.0,65.0,98,91,71,30.04,29.89,1,0,3,0.01
2013-8-30,84.3,72.6,66.4,72.0,68.0,65.0,96,86,64,30.04,29.88,2,0,3,0.00
2013-8-31,86.0,75.5,68.9,76.0,71.3,68.0,96,87,68,29.89,29.80,2,0,5,0.00
2013-9-1,84.5,74.6,69.7,76.0,71.6,68.0,98,90,73,29.86,29.79,5,0,6,1.71
2013-9-2,79.9,72.5,69.0,75.0,71.3,68.0,99,96,84,29.81,29.72,0,0,1,0.11
2013-9-3,81.7,71.7,63.7,71.0,65.6,59.0,99,83,50,29.90,29.72,1,0,4,0.01
2013-9-4,81.1,67.9,59.3,64.0,59.1,57.0,94,75,49,30.02,29.89,1,0,4,0.00
2013-9-5,79.3,66.2,57.5,64.0,55.4,45.0,90,70,41,30.16,29.95,0,0,4,0.00
2013-9-6,72.7,59.0,50.1,48.0,44.6,40.0,78,61,36,30.27,30.16,3,0,5,0.00
2013-9-7,79.7,64.3,53.3,55.0,51.0,46.0,90,64,39,30.15,29.93,3,0,3,0.00
2013-9-8,80.1,68.0,57.8,67.0,56.8,45.0,87,69,47,30.08,29.84,2,0,3,0.00
2013-9-9,73.8,61.5,50.6,59.0,51.8,45.0,84,71,56,30.25,30.09,1,0,3,0.00
2013-9-10,87.3,73.5,63.7,74.0,68.0,59.0,94,83,65,30.18,30.07,2,0,5,0.00
2013-9-11,92.7,80.5,72.0,80.0,73.5,70.0,96,80,60,30.13,29.99,3,0,5,0.00
2013-9-12,84.7,74.8,66.4,75.0,70.6,66.0,97,87,70,30.00,29.70,3,0,5,0.15
2013-9-13,77.3,65.6,55.0,66.0,60.0,50.0,98,83,54,29.87,29.65,1,0,4,0.07
2013-9-14,64.9,55.2,48.7,51.0,47.6,45.0,89,76,57,30.15,29.87,1,0,3,0.00
2013-9-15,73.4,57.8,46.0,53.0,47.6,43.0,91,71,41,30.24,30.10,2,0,4,0.00
2013-9-16,71.6,60.5,54.4,59.0,54.4,48.0,96,81,55,30.25,30.05,1,0,3,0.02
2013-9-17,67.3,53.4,43.3,48.0,40.8,36.0,84,64,38,30.44,30.25,5,0,6,0.00
2013-9-18,73.7,56.8,47.0,50.0,45.1,41.0,86,67,38,30.37,30.21,2,0,4,0.00
2013-9-19,77.8,61.1,51.0,53.0,49.8,46.0,88,69,39,30.21,30.09,1,0,3,0.00
2013-9-20,81.9,64.5,55.1,60.0,56.4,52.0,95,77,44,30.10,30.00,2,0,3,0.00
2013-9-21,77.6,64.7,54.3,67.0,59.8,54.0,97,85,55,30.02,29.68,3,0,5,0.45
2013-9-22,69.0,59.6,50.6,63.0,52.2,41.0,97,78,50,29.93,29.66,2,0,3,0.28
2013-9-23,66.9,53.5,45.3,48.0,43.4,40.0,86,70,46,30.06,29.93,1,0,5,0.00
2013-9-24,75.1,55.5,42.9,51.0,45.0,40.0,90,70,40,30.07,29.91,1,0,3,0.00
2013-9-25,71.5,58.1,48.1,52.0,46.8,42.0,82,67,42,29.98,29.89,1,0,3,0.00
2013-9-26,69.0,58.9,51.2,59.0,54.1,49.0,95,84,66,30.11,29.95,3,0,5,0.00
2013-9-27,65.5,58.1,50.5,55.0,51.9,48.0,94,81,61,30.28,30.11,2,0,4,0.00
2013-9-28,73.7,60.4,52.5,54.0,52.0,49.0,93,76,43,30.34,30.25,4,0,5,0.00
2013-9-29,72.7,59.1,52.7,58.0,53.4,51.0,93,82,56,30.25,30.09,1,0,3,0.00
2013-9-30,73.9,59.5,50.6,55.0,51.9,50.0,96,78,47,30.10,29.99,2,0,3,0.00
2013-10-1,81.6,64.6,55.1,62.0,55.9,51.0,90,75,49,30.03,29.93,1,0,3,0.00
2013-10-2,84.5,68.7,59.1,64.0,59.0,54.0,86,72,48,30.03,29.93,1,0,3,0.00
2013-10-3,78.3,67.0,59.0,60.0,57.3,52.0,90,73,43,30.13,30.03,1,0,2,0.00
2013-10-4,86.8,70.9,61.6,67.0,63.2,57.0,94,78,50,30.07,29.98,3,0,3,0.00
2013-10-5,80.6,68.4,64.1,67.0,64.2,62.0,97,87,61,30.10,30.02,2,0,3,0.00
2013-10-6,66.9,65.2,63.5,66.0,64.5,62.0,98,97,94,30.09,30.03,2,0,4,0.00
2013-10-7,76.3,64.1,52.1,71.0,63.1,50.0,99,96,83,30.02,29.75,4,0,11,0.00
2013-10-8,69.2,55.3,46.7,50.0,46.9,43.0,95,76,41,30.34,30.01,1,0,3,0.00
2013-10-9,58.9,53.7,48.0,49.0,45.0,38.0,82,73,63,30.40,30.30,4,0,9,0.16
2013-10-10,59.0,54.7,49.2,54.0,50.5,46.0,94,86,80,30.28,30.08,3,0,10,0.01
2013-10-11,64.2,60.3,54.9,60.0,56.5,53.0,95,87,79,30.09,30.01,4,1,8,0.02
2013-10-12,70.9,62.7,54.6,57.0,47.9,38.0,82,60,34,30.27,30.08,3,1,9,0.00
2013-10-13,66.2,57.1,52.2,53.0,50.8,48.0,91,80,61,30.39,30.27,3,0,7,0.00
2013-10-14,68.7,55.2,47.5,52.0,48.5,46.0,95,80,50,30.37,30.25,2,0,4,0.00
2013-10-15,73.2,57.8,49.7,55.0,48.7,37.0,95,75,40,30.28,30.14,1,0,4,0.00
2013-10-16,65.5,58.2,51.9,59.0,54.5,49.0,95,88,75,30.13,29.93,1,0,2,0.00
2013-10-17,71.5,63.1,58.6,62.0,60.0,57.0,98,90,70,29.93,29.70,1,0,3,0.02
2013-10-18,68.3,57.5,50.6,62.0,47.1,41.0,96,69,44,30.00,29.69,2,0,4,0.00
2013-10-19,63.4,53.8,47.9,52.0,45.0,41.0,93,73,56,30.00,29.77,4,0,4,0.01
2013-10-20,64.1,51.6,42.6,52.0,40.2,34.0,94,68,33,30.09,29.78,3,0,5,0.00
2013-10-21,69.2,53.9,44.7,44.0,39.1,36.0,77,60,33,30.17,30.00,3,0,5,0.00
2013-10-22,62.0,51.6,46.1,50.0,44.8,34.0,95,78,57,30.00,29.78,2,0,4,0.00
2013-10-23,56.4,45.5,40.0,40.0,36.0,33.0,81,70,51,29.83,29.63,1,0,4,0.00
2013-10-24,55.0,42.3,36.5,35.0,30.8,26.0,86,66,36,30.04,29.78,2,0,5,0.00
2013-10-25,54.8,41.8,33.9,35.0,30.7,28.0,82,66,39,30.26,30.05,2,0,4,0.00
2013-10-26,56.3,43.9,33.7,33.0,30.1,27.0,83,61,36,30.25,29.92,5,0,11,0.00
2013-10-27,59.3,47.3,41.0,35.0,31.9,30.0,69,56,39,30.15,29.88,1,0,4,0.00
2013-10-28,62.5,47.3,37.3,36.0,32.5,30.0,76,58,36,30.33,30.15,1,0,5,0.00
2013-10-29,58.4,46.1,39.0,37.0,33.0,29.0,73,61,39,30.43,30.33,1,0,5,0.00
2013-10-30,57.1,49.0,41.4,50.0,41.7,29.0,93,76,57,30.38,30.20,0,0,2,0.00
2013-10-31,62.4,57.0,49.7,60.0,54.8,48.0,96,92,84,30.25,29.82,1,0,4,0.10
2013-11-1,69.0,61.9,56.4,63.0,57.9,53.0,98,87,62,29.81,29.57,4,0,10,0.26
2013-11-2,68.0,55.8,49.6,55.0,45.6,39.0,96,70,45,29.80,29.64,1,0,3,0.00
2013-11-3,52.2,43.4,31.2,41.0,31.5,19.0,82,64,39,30.46,29.80,2,0,4,0.00
2013-11-4,47.3,35.5,28.5,23.0,18.5,15.0,66,52,28,30.68,30.46,4,0,5,0.00
2013-11-5,55.3,43.7,32.7,41.0,34.0,21.0,87,70,52,30.68,30.50,1,0,3,0.00
2013-11-6,64.9,51.6,42.4,51.0,44.9,40.0,95,79,51,30.51,30.08,1,0,4,0.00
2013-11-7,60.0,50.9,36.5,56.0,47.7,32.0,96,89,72,30.08,29.78,2,0,7,0.00
2013-11-8,49.3,40.0,34.4,35.0,29.1,25.0,83,66,44,30.25,29.95,3,0,5,0.00
2013-11-9,51.5,40.1,30.9,31.0,27.4,25.0,82,63,38,30.32,30.02,1,0,4,0.00
2013-11-10,58.8,45.6,36.5,36.0,31.5,26.0,80,60,39,30.08,29.84,4,1,11,0.00
2013-11-11,52.1,44.9,36.1,33.0,28.2,24.0,64,53,41,30.23,29.98,4,0,6,0.00
2013-11-12,47.7,34.7,25.2,34.0,23.3,16.0,88,64,49,30.32,29.95,3,0,6,0.00
2013-11-13,39.3,29.3,22.2,19.0,15.0,11.0,76,57,32,30.40,30.31,2,0,6,0.00
2013-11-14,53.2,38.8,27.4,21.0,17.0,13.0,68,45,21,30.31,30.20,3,0,7,0.00
2013-11-15,55.2,44.3,34.1,30.0,25.7,21.0,65,50,29,30.28,30.19,1,0,4,0.00
2013-11-16,61.1,48.3,41.7,46.0,39.9,28.0,96,75,49,30.36,30.26,2,0,11,0.00
2013-11-17,58.1,53.3,46.6,57.0,51.9,45.0,98,95,89,30.28,29.80,1,0,2,0.00
2013-11-18,64.8,56.7,46.6,61.0,41.0,26.0,98,60,34,29.80,29.62,5,1,10,0.00
2013-11-19,46.5,40.3,31.3,28.0,23.9,20.0,63,53,44,30.36,29.80,6,1,8,0.00
2013-11-20,46.1,33.9,27.5,20.0,14.9,6.0,69,49,21,30.64,30.37,2,0,5,0.00
2013-11-21,52.4,39.8,26.7,40.0,28.8,14.0,81,65,54,30.64,30.42,2,0,5,0.00
2013-11-22,54.6,48.9,45.4,49.0,45.0,40.0,96,86,78,30.41,29.93,2,0,4,0.00
2013-11-23,50.0,38.8,26.6,47.0,25.1,12.0,92,59,39,30.05,29.93,4,1,8,0.00
2013-11-24,28.2,22.4,19.1,11.0,3.5,1.0,53,44,35,30.42,30.05,7,1,10,0.00
2013-11-25,35.3,25.6,17.7,14.0,10.4,5.0,68,53,41,30.52,30.36,3,0,5,0.00
2013-11-26,45.3,33.2,28.6,45.0,25.3,14.0,97,74,53,30.36,29.78,3,0,9,0.61
2013-11-27,59.6,43.4,30.6,59.0,40.8,20.0,98,91,64,29.78,29.36,6,1,9,2.07
2013-11-28,34.8,28.6,24.6,22.0,14.1,11.0,77,56,39,30.49,29.80,5,1,8,0.00
2013-11-29,37.4,29.0,24.2,21.0,18.3,15.0,76,65,50,30.75,30.49,3,0,4,0.00
2013-11-30,35.3,28.0,19.7,28.0,19.0,11.0,82,69,55,30.77,30.40,2,0,5,0.00
2013-12-1,48.0,37.3,29.5,32.0,28.4,23.0,87,71,53,30.40,30.04,1,0,4,0.00
2013-12-2,49.6,40.0,35.3,35.0,29.8,27.0,91,68,47,30.03,29.90,0,0,2,0.00
2013-12-3,53.2,41.1,32.8,37.0,33.9,31.0,96,77,51,30.03,29.90,1,0,3,0.00
2013-12-4,49.3,42.8,35.6,45.0,38.0,33.0,92,83,70,30.15,30.03,1,0,3,0.00
2013-12-5,55.4,50.7,45.6,55.0,49.9,44.0,98,97,88,30.13,29.95,1,0,2,0.07
2013-12-6,59.4,45.5,35.7,59.0,44.7,35.0,99,97,94,30.16,29.88,3,0,5,0.94
2013-12-7,38.3,32.9,26.9,35.0,27.3,17.0,97,81,61,30.53,30.10,5,0,5,0.11
2013-12-8,30.4,26.6,23.1,27.0,19.2,15.0,95,75,60,30.61,30.38,1,0,4,0.00
2013-12-9,33.9,31.7,28.1,33.0,30.9,27.0,97,96,95,30.38,30.00,3,0,8,0.28
2013-12-10,31.6,28.6,21.8,31.0,27.0,17.0,97,93,80,30.16,29.91,0,0,2,0.00
2013-12-11,31.2,24.1,18.8,19.0,15.9,13.0,84,71,53,30.36,30.16,3,0,8,0.00
2013-12-12,26.0,20.3,16.4,16.0,9.0,5.0,78,62,46,30.39,30.20,3,0,5,0.00
2013-12-13,33.0,23.5,15.4,17.0,12.2,5.0,70,62,51,30.36,30.17,5,0,7,0.01
2013-12-14,29.6,23.3,19.2,29.0,18.9,17.0,96,83,67,30.50,29.79,5,1,13,0.00
2013-12-15,35.1,31.1,27.1,32.0,27.3,20.0,96,86,68,29.87,29.55,5,1,8,0.01
2013-12-16,28.1,23.0,17.8,21.0,12.1,8.0,78,63,49,30.27,29.87,6,1,7,0.00
2013-12-17,25.8,22.1,17.9,24.0,18.5,10.0,93,86,63,30.25,29.98,2,0,4,0.00
2013-12-18,34.3,25.3,17.7,23.0,18.9,15.0,91,77,58,30.22,29.97,5,0,8,0.07
2013-12-19,40.8,32.2,22.9,29.0,23.9,17.0,82,72,56,30.23,30.07,2,0,5,0.03
2013-12-20,47.5,41.5,33.5,43.0,31.5,27.0,84,68,55,30.14,30.00,2,0,5,0.19
2013-12-21,60.8,51.7,43.0,54.0,47.2,41.0,97,85,69,30.03,29.93,2,0,6,0.00
2013-12-22,67.2,62.5,57.4,62.0,58.4,54.0,95,86,77,29.97,29.82,6,1,10,0.02
2013-12-23,58.4,52.2,36.8,58.0,50.5,30.0,98,94,76,30.17,29.91,3,0,7,0.47
2013-12-24,38.4,31.6,22.0,30.0,21.9,11.0,90,68,53,30.36,30.12,4,0,7,0.00
2013-12-25,26.1,21.1,14.6,15.0,9.4,6.0,70,61,48,30.55,30.36,3,0,7,0.00
2013-12-26,32.7,27.6,22.4,26.0,21.1,15.0,81,77,71,30.45,30.20,3,0,5,0.00
2013-12-27,39.7,30.6,25.6,22.0,20.1,18.0,77,66,47,30.39,30.29,3,0,6,0.00
2013-12-28,54.0,40.5,28.1,28.0,24.6,20.0,74,55,36,30.31,30.10,3,0,11,0.00
2013-12-29,42.3,39.8,37.8,40.0,33.2,26.0,97,79,54,30.10,29.45,4,0,9,1.28
2013-12-30,41.8,32.9,19.2,36.0,26.2,10.0,95,77,59,30.20,29.72,3,0,6,0.00
2013-12-31,28.7,22.5,15.8,24.0,12.8,8.0,85,67,57,30.33,30.10,4,0,5,0.00
2014-1-1,30.7,25.1,19.0,20.0,14.8,9.0,72,65,56,30.45,30.27,2,0,4,0.00
2014-1-2,28.8,23.0,12.9,21.0,18.5,10.0,91,83,68,30.26,29.69,6,1,8,0.00